x

Buoy E01 - Central Maine Shelf (44032) Wave Buoy

9:04 - Thu 27th Jul 2017 All times are EDT. -4 hours from GMT.

  • Sig Wave height 4.9ft
  • Peak Period 5s
  • Wind
    13mph, 16mph gusts
  • Sea Temp 55°f
  • Air Temp 60°f
  • Sea Pressure 1009.5mb
  • Buoy E01 - Central Maine Shelf
  • Buoy E01 - Central Maine Shelf

More Historic Weather Station data

Upgrade to MSW Pro to gain access to the past 30 days of data for over 8000 Wavebouys and Weather Stations around the globe.

Join Pro

Comparision Forecast

View Surf forecast
   
jeu. 07/27 9:04 5ft 5s 13 16 mph 1009.5mb 55f 60f
8:04 4.5ft 5s 13 13 mph 1009.7mb 55f 60f
7:04 4.5ft 5s 16 18 mph 1009.4mb 56f 61f
6:04 5.5ft 5s 16 18 mph 1009.2mb 55f 61f
5:04 5ft 6s 16 18 mph 1009.8mb 56f 61f
4:04 4.5ft 5s 16 18 mph 1010.6mb 56f 61f
3:04 4.5ft 5s 16 18 mph 1010.6mb 56f 61f
2:04 4.5ft 5s 16 18 mph 1011.5mb 56f 61f
1:04 4ft 5s 13 13 mph 1012.3mb 56f 60f
12:04 4ft 5s 13 16 mph 1013mb 56f 60f
11:04 4ft 5s 11 13 mph 1013.6mb 56f 60f
10:04 3.5ft 5s 13 16 mph 1014.2mb 56f 60f
9:04 3.5ft 8s 13 13 mph 1014.6mb 56f 60f
8:04 3.5ft 5s 11 11 mph 1015.2mb 55f 59f
7:04 3.5ft 5s 11 11 mph 1015.3mb 56f 60f
6:04 3ft 5s 11 13 mph 1015.4mb 56f 60f
5:04 3ft 8s 9 11 mph 1015.4mb 56f 60f
4:04 3ft 4s 9 9 mph 1015.7mb 56f 60f
3:04 2.5ft 6s 9 9 mph 1016mb 55f 60f
2:04 2.5ft 6s 9 9 mph 1016.7mb 55f 60f
1:04 2.5ft 6s 9 9 mph 1017.3mb 55f 60f
12:04 2.5ft 8s 11 11 mph 1017.8mb 55f 60f
mer. 07/26 11:04 2ft 8s 9 11 mph 1018.1mb 56f 60f
10:04 2.5ft 8s 9 9 mph 1019mb 57f 60f
9:04 2.5ft 8s 7 7 mph 1019.5mb 57f 60f
8:04 2.5ft 8s 7 7 mph 1019.2mb 57f 60f
7:04 2ft 8s 7 9 mph 1019.3mb 57f 62f
6:04 2.5ft 8s 7 7 mph 1019.7mb 58f 62f
5:04 2ft 8s 7 7 mph 1020.1mb 57f 62f
4:04 2.5ft 8s 4 7 mph 1020.6mb 57f 61f
3:04 2.5ft 6s 4 7 mph 1020.8mb 59f 61f
2:04 3ft 8s 7 7 mph 1021.1mb 60f 61f
1:04 3.5ft 8s 4 4 mph 1021.6mb 58f 62f
12:04 3.5ft 8s 4 7 mph 1022.2mb 59f 63f
11:04 3.5ft 8s  -  2 mph 1022.5mb 56f 61f
10:04 3.5ft 8s 2 2 mph 1022.8mb 56f 59f
8:04 3ft 8s 4 7 mph 1022.6mb 55f 57f
7:04 3.5ft 8s 7 9 mph 1022.4mb 55f 58f
6:04 3ft 8s 7 7 mph 1022.3mb 55f 58f
5:04 2.5ft 8s 7 7 mph 1021.5mb 55f 57f
4:04 3ft 8s 2 4 mph 1021.2mb 55f 56f
3:04 3ft 8s 4 4 mph 1021.3mb 55f 57f
2:04 2.5ft 8s 2 4 mph 1021.2mb 55f 57f
1:04 3ft 8s 4 4 mph 1021.4mb 55f 57f
mar. 07/25 11:04 4ft 8s 7 7 mph 1021.3mb 55f 58f
10:04 4.5ft 8s 7 9 mph 1021.1mb 55f 58f
9:04 4ft 8s 7 9 mph 1021.2mb 55f 58f
8:04 4.5ft 8s 7 7 mph 1020.6mb 56f 58f
7:04 3.5ft 8s 4 7 mph 1020.5mb 56f 60f
6:04 3.5ft 8s 4 4 mph 1020.3mb 58f 61f
5:04 3.5ft 8s 2 4 mph 1020.2mb 56f 62f
4:04 4ft 8s 2 2 mph 1019.8mb 55f 62f
3:04 4.5ft 8s 2 2 mph 1019.3mb 55f 60f
2:04 4.5ft 6s 2 2 mph 1019mb 55f 60f
1:04 5ft 8s 4 7 mph 1018.8mb 55f 59f
12:04 5ft 8s 9 9 mph 1018.7mb 55f 58f
11:04 5.5ft 8s 16 18 mph 1018.5mb 54f 58f
10:04 4.5ft 8s 7 9 mph 1018.4mb 54f 56f
9:04 4ft 8s 7 9 mph 1018.1mb 54f 56f
8:04 3.5ft 6s 11 13 mph 1017.6mb 54f 56f
7:04 4.5ft 8s 13 16 mph 1017.1mb 54f 55f
6:04 4.5ft 6s 13 16 mph 1016.8mb 54f 55f
5:04 4.5ft 6s 13 16 mph 1015.5mb 55f 55f
4:04 5ft 6s 13 16 mph 1015.1mb 55f 55f
3:04 5ft 6s 16 20 mph 1014.6mb 55f 55f
2:04 5ft 6s 18 22 mph 1014.3mb 55f 55f
1:04 6ft 6s 18 25 mph 1014.4mb 55f 55f
12:04 5.5ft 6s 20 25 mph 1014.1mb 55f 55f
lun. 07/24 11:04 5.5ft 6s 22 27 mph 1014.2mb 55f 55f
10:04 5ft 5s 22 27 mph 1014.3mb 55f 55f
9:04 4ft 5s 22 27 mph 1014.7mb 55f 55f
8:04 3.5ft 5s 18 22 mph 1014.7mb 55f 55f
7:04 3.5ft 5s 20 25 mph 1014.6mb 56f 55f
6:04 3ft 3s 20 25 mph 1014.9mb 56f 55f
5:04 2.5ft 8s 11 13 mph 1015.5mb 56f 55f
4:04 2.5ft 3s 13 16 mph 1014.6mb 57f 56f
3:04 1.6ft 3s 18 20 mph 1014.2mb 57f 57f
2:04 1.3ft 3s 13 16 mph 1015mb 57f 57f
1:04 1.6ft 3s 11 16 mph 1015mb 57f 57f
12:04 2.5ft 6s 13 16 mph 1015.6mb 57f 57f
11:04 2.5ft 8s 13 13 mph 1015.8mb 58f 58f
10:04 2ft 8s 9 9 mph 1016mb 58f 58f
9:04 2ft 8s 7 9 mph 1016.3mb 58f 59f
8:04 1.6ft 8s 7 7 mph 1015.5mb 58f 59f
7:04 1.6ft 8s 7 9 mph 1015.2mb 58f 59f
6:04 1.6ft 8s 7 9 mph 1014.9mb 58f 59f
5:04 1.6ft 11s 7 9 mph 1015.2mb 59f 58f
4:04 1.3ft 11s 7 7 mph 1014.6mb 59f 59f
3:04 1.3ft 11s 2 4 mph 1014mb 58f 59f